Tracking 29042 objects as of 20-Jun-2024
HD Live streaming from Space Station
objects crossing your sky now

KSF2-C

Track KSF2-C now!
10-day predictions


NORAD ID: 52189
Int'l Code: 2022-033AJ
Perigee: 363.4 km
Apogee: 374.7 km
Inclination: 97.3 °
Period: 91.8 minutes
Semi major axis: 6740 km
RCS: Unknown
Launch date: April 1, 2022
Source: Luxembourg (LUXE)
Launch site: AIR FORCE EASTERN TEST RANGE (AFETR)
Your satellite tracking list
Your tracking list is empty




NASA's NSSDC Master Catalog

Two Line Element Set (TLE):
1 52189U 22033AJ  24172.56884622  .00072587  00000-0  62740-3 0  9993
2 52189  97.3365 264.5623 0008405 251.5943 108.4405 15.68941635124427
Source of the keplerian elements: AFSPC